STARLINK-33719, 63578

Orbit data source: Space-Track

STARLINK-33719, 63578 is a payload satellite owned by SpaceX/Seattle (US) in LEO that was launched on Mon, 14 Apr 2025 UTC via an FALCON 9 launch vehicle from the Air Force Eastern Test Range (AFETR). Payload-class satellites include a variety of spacecraft equipped with specific instruments for various scientific and technological missions. These include communications satellites like Starlink; space stations such as the ISS; scientific satellites like the Hubble; Earth observation satellites from companies like Planet Labs, Umbra, and HawkEye 360; GPS; miniature CubeSats for education and research; and military/defense satellites.

Loading next visibility...
Identifier
63578, 2025-076K
Orbit
LEO
Country
Flag of USUS
Related business
Manufacturer
SpaceX/Seattle
Mission
Operational Commercial Communications
Bus & Motor
STARLINK V2MO, Unknown motor
Mass
575 kg wet, ~530 kg dry
Launch date (UTC)
2025-04-14 (8 months ago)
Launch vehicle
FALCON 9
Launch site
Air Force Eastern Test Range (AFETR)
Object type
Payload
Rocket body
Debris
Shape & HBR
Box + 2 Pan, 17.7 m
Radar Cross Section
36.964 m², Large (>1 m²)

Expand to show TLE details & history
Last TLE update: 23 hours ago

TLE from 23 hours ago
0 STARLINK-33719
1 63578U 25076K   25347.65684617  .00020637  00000-0  75667-3 0  9995
2 63578  43.0006  87.4970 0001267 277.5480  82.5228 15.27609380 38670
Epoch: 2025-12-13T15:45Z
TLE epoch observation values (Epoch: 2025-12-13T15:45:51.509Z)
Latitude
0.00002°
Longitude
128.45142°
Altitude
482.624 km
Speed
7.626 km/s
True Right ascension
05h 49m 59s
True Declination
0° 00' 00"
Sunlit
Object was in full shadow at epoch
Visualization orbit readout
Latitude
Unknown
Longitude
Unknown
Altitude
Unknown
Speed
Unknown
Apparent Right ascension
Unknown
Apparent Declination
Unknown
Sunlit
N/A
Visualization observer readout
Local Sidereal Time
13:04:42
Azimuth
Unknown
Elevation
Unknown
Doppler factor
Unknown
Orbital elements
Apogee altitude
485.776 km
Perigee altitude
484.037 km
Semi-major axis
6,863.043 km
Eccentricity
0.00013
Inclination
43.0006°
RAAN
87.497°
Arg. of periapsis
277.548°
True anomaly
82.5372°
Mean anomaly
82.5228°
Eccentric anomaly
82.53°
Mean motion
3.8174 °/min
Orbital period
94.3 mins
BSTAR
0.00075667
Loading maneuver chart data...
Computing Atmospheric mass density...
Loading historical data...
Loading historical data...
Loading historical data...
Loading historical data...
Loading historical data...
Loading historical data...
Loading historical data...

Documentation

Showing up to 5 results
|